Overview Statistics Trail Chart Weather Telemetry Raw packets
 

This is the latest recevied weather packets stored in our database for station/object IONIA-WX. If no packets are shown the sender has not sent any weather packets the latest 10 day(s).

<< 16 17 18 19 20 21 22 >>
Time Temp. Humidity Pressure Rain* Wind** Luminosity Snow
1788241522 22.22° C 84% 983.1 hPa 0 mm - - -
1788240623 22.22° C 86% 982.6 hPa 0 mm - - -
1788239717 22.22° C 86% 982.6 hPa 0 mm - - -
1788238825 22.22° C 86% 982.6 hPa 0 mm - - -
1788237922 22.78° C 82% 983.2 hPa 0 mm - - -
1788237017 22.22° C 85% 982.6 hPa 0 mm - - -
1788236122 22.22° C 85% 982.6 hPa 0 mm - - -
1788235225 22.22° C 85% 982.6 hPa 0 mm - - -
1788234321 22.22° C 82% 983.2 hPa 0 mm - - -
1788233422 22.78° C 84% 983 hPa 0 mm - - -
1788232522 22.78° C 84% 982.9 hPa 0 mm - - -
1788231622 22.78° C 84% 982.9 hPa 0 mm - - -
1788230722 22.78° C 83% 983.8 hPa 0 mm - - -
1788229821 22.78° C 85% 983.2 hPa 0 mm - - -
1788228921 22.78° C 85% 983.1 hPa 0 mm - - -
1788228024 22.78° C 85% 983.1 hPa 0 mm - - -
1788227121 22.78° C 83% 983.3 hPa 0 mm - - -
1788226219 23.33° C 83% 983.3 hPa 0 mm - - -
1788225321 22.78° C 83% 983.3 hPa 0 mm - - -
1788224422 23.33° C 83% 983.3 hPa 0 mm - - -
1788223521 23.33° C 81% 983.7 hPa 0 mm - - -
1788222620 23.89° C 81% 982.8 hPa 0 mm - - -
1788221721 24.44° C 81% 982.8 hPa 0 mm - - -
1788220818 25° C 81% 982.8 hPa 0 mm - - -
1788219921 25° C 77% 983.3 hPa 0 mm - - -

* Rain latest hour (hover to see other rain measurements)
** Current wind speed in m/s (hover to see current wind gust speed)